2023/07/30 00:00:00,77.9,19.2
2023/07/30 00:10:00,79.1,19.5
2023/07/30 00:20:00,79.3,19.3
2023/07/30 00:30:00,79.1,19.3
2023/07/30 00:40:00,79.3,19.4
2023/07/30 00:50:00,79.5,19.3
2023/07/30 01:00:00,79.8,19.2
2023/07/30 01:10:00,79.7,19.1
2023/07/30 01:20:00,79.7,19.5
2023/07/30 01:30:00,79.9,19.1
2023/07/30 01:40:00,80.0,19.0
2023/07/30 01:50:00,80.0,19.1
2023/07/30 02:00:00,80.2,18.8
2023/07/30 02:10:00,80.3,19.0
2023/07/30 02:20:00,80.3,19.1
2023/07/30 02:30:00,80.3,19.0
2023/07/30 02:40:00,80.4,19.0
2023/07/30 02:50:00,80.5,19.2
2023/07/30 03:00:00,80.6,19.1
2023/07/30 03:10:00,80.8,19.0
2023/07/30 03:20:00,80.8,19.0
2023/07/30 03:30:00,80.8,19.0
2023/07/30 03:40:00,80.8,19.0
2023/07/30 03:50:00,80.9,18.7
2023/07/30 04:00:00,80.9,19.0
2023/07/30 04:10:00,80.9,18.8
2023/07/30 04:20:00,80.9,18.7
2023/07/30 04:30:00,81.0,18.9
2023/07/30 04:40:00,81.0,18.7
2023/07/30 04:50:00,81.0,18.6
2023/07/30 05:00:00,81.0,18.5
2023/07/30 05:10:00,81.0,18.6
2023/07/30 05:20:00,81.0,18.5
2023/07/30 05:30:00,81.1,18.5
2023/07/30 05:40:00,81.0,19.3
2023/07/30 05:50:00,81.0,18.7
2023/07/30 06:00:00,81.0,18.7
2023/07/30 06:10:00,81.1,18.8
2023/07/30 06:20:00,81.0,18.9
2023/07/30 06:30:00,81.0,19.0
2023/07/30 06:40:00,81.1,19.4
2023/07/30 06:50:00,81.0,19.5
2023/07/30 07:00:00,81.0,19.9
2023/07/30 07:10:00,81.0,20.0
2023/07/30 07:20:00,80.9,20.3
2023/07/30 07:30:00,81.0,20.5
2023/07/30 07:40:00,80.9,23.5
2023/07/30 07:50:00,82.9,26.9
2023/07/30 08:00:00,83.2,27.2
2023/07/30 08:10:00,82.5,28.6
2023/07/30 08:20:00,---,29.0
2023/07/30 08:30:00,45.7,29.5
2023/07/30 08:40:00,21.3,29.8
2023/07/30 08:50:00,66.5,30.4
2023/07/30 09:00:00,138.5,28.5
2023/07/30 09:10:00,44.4,27.2
2023/07/30 09:20:00,59.1,27.6
2023/07/30 09:30:00,67.2,28.0
2023/07/30 09:40:00,84.1,28.3
2023/07/30 09:50:00,83.4,28.6
2023/07/30 10:00:00,82.9,28.9
2023/07/30 10:10:00,82.7,29.1
2023/07/30 10:20:00,82.3,29.2
2023/07/30 10:30:00,82.2,28.9
2023/07/30 10:40:00,82.7,30.3
2023/07/30 10:50:00,---,30.2
2023/07/30 11:00:00,---,31.1
2023/07/30 11:10:00,---,31.4
2023/07/30 11:20:00,83.6,33.0
2023/07/30 11:30:00,81.4,30.2
2023/07/30 11:40:00,79.7,29.9
2023/07/30 11:50:00,79.3,29.0
2023/07/30 12:00:00,79.1,28.8
2023/07/30 12:10:00,79.1,28.9
2023/07/30 12:20:00,81.0,29.7
2023/07/30 12:30:00,80.8,28.9
2023/07/30 12:40:00,80.1,29.0
2023/07/30 12:50:00,80.1,29.4
2023/07/30 13:00:00,80.3,29.9
2023/07/30 13:10:00,80.6,31.1
2023/07/30 13:20:00,80.3,30.0
2023/07/30 13:30:00,79.5,29.2
2023/07/30 13:40:00,80.3,30.8
2023/07/30 13:50:00,---,30.5
2023/07/30 14:00:00,81.0,30.0
2023/07/30 14:10:00,79.7,29.2
2023/07/30 14:20:00,---,30.8
2023/07/30 14:30:00,---,30.0
2023/07/30 14:40:00, 1.4,30.0
2023/07/30 14:50:00,---,29.9
2023/07/30 15:00:00,79.5,29.6
2023/07/30 15:10:00,80.0,30.4
2023/07/30 15:20:00,80.2,30.3
2023/07/30 15:30:00,80.3,30.6
2023/07/30 15:40:00,80.4,30.3
2023/07/30 15:50:00,80.3,29.7
2023/07/30 16:00:00,80.7,30.4
2023/07/30 16:10:00,80.8,32.0
2023/07/30 16:20:00,---,29.6
2023/07/30 16:30:00,79.8,29.2
2023/07/30 16:40:00,80.0,28.6
2023/07/30 16:50:00,78.9,28.3
2023/07/30 17:00:00,78.6,27.6
2023/07/30 17:10:00,78.8,27.5
2023/07/30 17:20:00,79.0,27.2
2023/07/30 17:30:00,79.3,26.8
2023/07/30 17:40:00,79.5,26.4
2023/07/30 17:50:00,79.3,26.4
2023/07/30 18:00:00,79.2,26.0
2023/07/30 18:10:00,78.8,25.7
2023/07/30 18:20:00,78.8,25.5
2023/07/30 18:30:00,78.6,25.1
2023/07/30 18:40:00,78.8,25.0
2023/07/30 18:50:00,79.1,24.7
2023/07/30 19:00:00,79.4,24.4
2023/07/30 19:10:00,79.5,24.1
2023/07/30 19:20:00,79.5,23.6
2023/07/30 19:30:00,79.4,23.8
2023/07/30 19:40:00,79.4,23.7
2023/07/30 19:50:00,79.5,23.3
2023/07/30 20:00:00,79.5,23.3
2023/07/30 20:10:00,79.5,23.2
2023/07/30 20:20:00,79.5,23.3
2023/07/30 20:30:00,79.5,22.7
2023/07/30 20:40:00,79.5,22.8
2023/07/30 20:50:00,79.5,22.6
2023/07/30 21:00:00,79.6,22.5
2023/07/30 21:10:00,79.5,22.6
2023/07/30 21:20:00,79.5,22.3
2023/07/30 21:30:00,79.5,22.5
2023/07/30 21:40:00,79.4,22.1
2023/07/30 21:50:00,79.5,21.5
2023/07/30 22:00:00,79.4,21.6
2023/07/30 22:10:00,79.3,21.6
2023/07/30 22:20:00,79.3,21.5
2023/07/30 22:30:00,79.3,21.3
2023/07/30 22:40:00,79.3,21.2
2023/07/30 22:50:00,79.2,21.0
2023/07/30 23:00:00,79.3,20.8
2023/07/30 23:10:00,79.4,20.6
2023/07/30 23:20:00,79.1,20.5
2023/07/30 23:30:00,79.0,20.5
2023/07/30 23:40:00,78.6,20.5
2023/07/30 23:50:00,78.3,20.2
